TimeCDT,TemperatureF,Dew PointF,Humidity,Sea Level PressureIn,VisibilityMPH,Wind Direction,Wind SpeedMPH,Gust SpeedMPH,PrecipitationIn,Events,Conditions,WindDirDegrees,DateUTC
12:53 AM,50.0,37.0,61,30.21,10.0,SSW,6.9,-,N/A,,Clear,210,2013-03-15 05:53:00
1:53 AM,48.9,37.9,66,30.21,10.0,SSW,8.1,-,N/A,,Clear,210,2013-03-15 06:53:00
2:53 AM,48.9,37.0,64,30.19,10.0,SW,5.8,-,N/A,,Clear,220,2013-03-15 07:53:00
3:53 AM,48.0,37.0,66,30.18,10.0,SW,6.9,-,N/A,,Clear,220,2013-03-15 08:53:00
4:53 AM,46.9,37.9,71,30.18,10.0,SSW,6.9,-,N/A,,Clear,210,2013-03-15 09:53:00
5:53 AM,48.0,39.9,74,30.19,10.0,SSW,8.1,-,N/A,,Clear,210,2013-03-15 10:53:00
6:53 AM,46.0,39.0,76,30.19,10.0,SSW,6.9,-,N/A,,Clear,200,2013-03-15 11:53:00
7:53 AM,50.0,42.1,74,30.19,10.0,SSW,9.2,-,N/A,,Clear,210,2013-03-15 12:53:00
8:53 AM,55.0,43.0,64,30.20,10.0,SSW,9.2,-,N/A,,Clear,200,2013-03-15 13:53:00
9:53 AM,59.0,44.1,58,30.19,10.0,SW,10.4,-,N/A,,Clear,220,2013-03-15 14:53:00
10:53 AM,64.0,46.0,52,30.19,10.0,Variable,6.9,-,N/A,,Clear,0,2013-03-15 15:53:00
11:53 AM,66.9,48.0,51,30.18,10.0,WSW,8.1,-,N/A,,Clear,240,2013-03-15 16:53:00
12:53 PM,69.1,48.9,49,30.15,10.0,SW,11.5,18.4,N/A,,Clear,220,2013-03-15 17:53:00
1:53 PM,72.0,50.0,46,30.11,10.0,SW,16.1,21.9,N/A,,Clear,220,2013-03-15 18:53:00
2:53 PM,73.9,48.9,41,30.07,10.0,SW,10.4,19.6,N/A,,Clear,230,2013-03-15 19:53:00
3:53 PM,75.0,48.9,40,30.05,10.0,SW,13.8,18.4,N/A,,Clear,220,2013-03-15 20:53:00
4:53 PM,73.9,48.0,40,30.02,10.0,SSW,19.6,-,N/A,,Clear,210,2013-03-15 21:53:00
5:53 PM,73.9,46.9,38,30.00,10.0,SSW,17.3,24.2,N/A,,Clear,210,2013-03-15 22:53:00
6:53 PM,69.1,46.0,44,30.01,10.0,SSW,10.4,-,N/A,,Clear,210,2013-03-15 23:53:00
7:53 PM,62.1,48.0,60,29.99,10.0,South,8.1,-,N/A,,Clear,190,2013-03-16 00:53:00
8:53 PM,64.9,45.0,48,29.99,10.0,SSW,11.5,-,N/A,,Clear,210,2013-03-16 01:53:00
9:53 PM,64.9,44.1,47,29.98,10.0,SSW,12.7,-,N/A,,Clear,210,2013-03-16 02:53:00
10:53 PM,64.0,45.0,50,29.98,10.0,SSW,13.8,-,N/A,,Clear,210,2013-03-16 03:53:00
11:53 PM,63.0,46.0,54,29.98,10.0,SSW,13.8,-,N/A,,Clear,210,2013-03-16 04:53:00